Weather History for Klamath Falls, OR

Change the Weather History Date:

Tuesday, February 5, 2013

  Actual Average Record
Temperature  
Mean Temperature 37 °F 32 °F  
Max Temperature 46 °F 43 °F 63 °F (1995)
Min Temperature 28 °F 22 °F -10 °F (1989)
Degree Days  
Heating Degree Days 28 33  
Month to date heating degree days 147 165  
Since 1 July heating degree days 3944 4145  
Cooling Degree Days 0 0  
Month to date cooling degree days 0 0  
Year to date cooling degree days 0 0  
Moisture  
Dew Point 29 °F    
Average Humidity 78    
Maximum Humidity 92    
Minimum Humidity 53    
Precipitation  
Precipitation T in 0.08 in 0.63 in (1953)
Month to date precipitation T 0.30  
Year to date precipitation 0.44 2.15  
Sea Level Pressure  
Sea Level Pressure 30.00 in    
Wind  
Wind Speed 5 mph (West)    
Max Wind Speed 21 mph    
Max Gust Speed 26 mph    
Visibility 9 miles    
Events Rain    
T = Trace of Precipitation, MM = Missing Value Source: NWS Daily Summary

Daily Weather History Graph

Daily Weather History Graph

Search for Another Location

Airport:

Trip Planner

Search our weather history database for the weather conditions in past years. The results will help you decide how hot, cold, wet, or windy it might be!

Date:

Astronomy

Feb. 05, 2013 Rise Set
Actual Time 7:15 AM PST 5:27 PM PST
Civil Twilight 6:45 AM PST 5:56 PM PST
Nautical Twilight 6:12 AM PST 6:29 PM PST
Astronomical Twilight 5:40 AM PST 7:02 PM PST
Moon 3:04 AM PST (2/5) 12:47 PM PST (2/5)
Length of Visible Light 11h 10m
Length of Day
10h 11m
Waning Crescent, 25% of the Moon is Illuminated
Feb 5
Waning Crescent
Feb 9
New
Feb 17
First Quarter
Feb 25
Full
Mar 4
Last Quarter

Hourly Weather History & Observations

Time (PST) Temp. Windchill Dew Point Humidity Pressure Visibility Wind Dir Wind Speed Gust Speed Precip Events Conditions
12:53 AM 30.0 °F - 27.0 °F 88% 30.01 in 9.0 mi Calm Calm - N/A   Clear
1:53 AM 32.0 °F - 28.0 °F 85% 29.99 in 10.0 mi Calm Calm - N/A   Clear
2:53 AM 32.0 °F - 28.9 °F 88% 29.98 in 7.0 mi Calm Calm - N/A   Partly Cloudy
3:53 AM 33.1 °F - 28.0 °F 82% 29.96 in 10.0 mi Calm Calm - N/A   Clear
4:53 AM 30.9 °F - 28.9 °F 92% 29.97 in 8.0 mi Calm Calm - N/A   Clear
5:53 AM 30.0 °F - 28.0 °F 92% 29.98 in 7.0 mi Calm Calm - N/A   Clear
6:00 AM 30.2 °F - 28.4 °F 93% 29.95 in 7.0 mi Calm Calm - N/A   Overcast
6:53 AM 28.9 °F 25.2 °F 26.1 °F 89% 29.99 in 10.0 mi East 3.5 mph - N/A   Overcast
8:53 AM 30.9 °F - 28.9 °F 92% 30.02 in 10.0 mi Calm Calm - N/A   Mostly Cloudy
9:53 AM 35.1 °F - 28.9 °F 78% 30.02 in 10.0 mi Calm Calm - N/A   Mostly Cloudy
10:53 AM 42.1 °F - 32.0 °F 67% 29.99 in 10.0 mi Calm Calm - N/A   Mostly Cloudy
11:53 AM 44.1 °F 42.5 °F 28.9 °F 55% 29.96 in 10.0 mi West 3.5 mph - N/A   Mostly Cloudy
12:53 PM 45.0 °F 39.3 °F 28.0 °F 52% 29.95 in 10.0 mi WNW 11.5 mph - N/A   Overcast
1:04 PM 42.8 °F 37.0 °F 28.4 °F 57% 29.95 in 10.0 mi WNW 10.4 mph - 0.00 in Rain Light Rain
1:31 PM 42.8 °F 35.1 °F 30.2 °F 61% 29.95 in 10.0 mi West 16.1 mph - 0.00 in   Mostly Cloudy
1:53 PM 42.1 °F 34.9 °F 30.0 °F 62% 29.96 in 10.0 mi West 13.8 mph - 0.00 in   Mostly Cloudy
2:53 PM 43.0 °F 36.0 °F 34.0 °F 71% 29.96 in 10.0 mi West 13.8 mph - N/A   Mostly Cloudy
3:53 PM 39.2 °F 32.5 °F 33.8 °F 81% 29.98 in 10.0 mi NW 10.4 mph - N/A   Mostly Cloudy
4:53 PM 37.9 °F 30.9 °F 30.0 °F 73% 30.01 in 10.0 mi West 10.4 mph - N/A   Scattered Clouds
5:53 PM 34.0 °F 27.2 °F 28.9 °F 82% 30.04 in 10.0 mi NW 8.1 mph - N/A   Scattered Clouds
6:53 PM 33.1 °F 24.4 °F 28.0 °F 82% 30.06 in 7.0 mi NW 11.5 mph - N/A   Partly Cloudy
7:53 PM 30.0 °F 26.5 °F 27.0 °F 88% 30.08 in 7.0 mi SW 3.5 mph - N/A   Partly Cloudy
8:53 PM 34.0 °F 28.0 °F 28.9 °F 82% 30.08 in 7.0 mi West 6.9 mph - N/A   Partly Cloudy
9:53 PM 30.0 °F 23.2 °F 26.1 °F 85% 30.10 in 7.0 mi WSW 6.9 mph - N/A   Partly Cloudy
11:53 PM 33.1 °F 24.4 °F 26.1 °F 75% 30.10 in 10.0 mi West 11.5 mph - N/A   Clear